Weather in Jamnagar

India     22°28′00″N   70°04′12″E
temp.,
°C
wind,
m/s
gust,
m/s
humid.,
%
clouds,
%
prec.,
mm/h
press.,
hPa
HPBL,
m
8 december, wed
wed823:30+24ne710630 0.0 1015280
02:30+23ne610620 0.0 1014278
05:30+23ne58630 0.0 1014236
08:30+23ene57570 0.0 1017371
11:30+26ne56420 0.0 1017637
14:30+27n55370 0.0 1014986
17:30+27n46380 0.0 1014550
20:30+25nne710510 0.0 1016275
9 december, thu
thu923:30+24nne58540 0.0 1016167
02:30+23ne57530 0.0 1015173
05:30+22ne57530 0.0 1015214
08:30+22ene57530 0.0 1017318
11:30+25ne56430 0.0 1018583
14:30+27n55390 0.0 1015840
17:30+27n57370 0.0 1015474
20:30+24n811530 0.0 1017284
10 december, fri
fri1023:30+24nne69545 0.0 1017197
02:30+23ne58530 0.0 1016209
05:30+22ne68561 0.0 1016229
08:30+22ene585426 0.0 1019317
11:30+25ne68410 0.0 1018579
14:30+27nne66380 0.0 1015817
17:30+27nne78430 0.0 1015448
20:30+24nne811550 0.0 1017285
11 december, sat
sat1123:30+24ne69530 0.0 1016209
02:30+23ene58480 0.0 1015178
05:30+22ne57500 0.0 1015181
08:30+22ene57500 0.0 1017273
11:30+25ne45390 0.0 1017446
14:30+27nne54380 0.0 1014471
17:30+27n44390 0.0 1014295
20:30+24nne79570 0.0 1016220
12 december, sun
sun1223:30+23nne57610 0.0 1016171
02:30+23ne45570 0.0 1015115
05:30+22ne45530 0.0 1015117
08:30+23ne45520 0.0 1017240
11:30+25ne45410 0.0 1017444
14:30+26nne44360 0.0 1014477
17:30+26n44373 0.0 1014259
20:30+24n57560 0.0 1015174